TimeCST,TemperatureF,Dew PointF,Humidity,Sea Level PressureIn,VisibilityMPH,Wind Direction,Wind SpeedMPH,Gust SpeedMPH,PrecipitationIn,Events,Conditions,WindDirDegrees,DateUTC
12:15 AM,55.4,53.6,94,30.40,3.0,NE,6.9,-,N/A,,Overcast,40,2013-01-10 06:15:00
2:15 AM,53.6,53.6,100,30.39,3.0,NE,8.1,-,N/A,,Overcast,40,2013-01-10 08:15:00
2:35 AM,53.6,53.6,100,30.38,4.0,NNE,6.9,-,N/A,,Overcast,30,2013-01-10 08:35:00
2:55 AM,53.6,53.6,100,30.37,4.0,NE,6.9,-,N/A,,Overcast,40,2013-01-10 08:55:00
3:15 AM,55.4,53.6,94,30.37,4.0,NNE,4.6,-,N/A,,Overcast,30,2013-01-10 09:15:00
3:35 AM,55.4,53.6,94,30.36,4.0,NNE,4.6,-,N/A,,Overcast,20,2013-01-10 09:35:00
3:55 AM,55.4,53.6,94,30.36,4.0,North,3.5,-,N/A,,Overcast,10,2013-01-10 09:55:00
4:15 AM,55.4,53.6,94,30.35,4.0,NNE,3.5,-,N/A,,Overcast,30,2013-01-10 10:15:00
4:55 AM,55.4,53.6,94,30.35,4.0,North,3.5,-,N/A,,Overcast,360,2013-01-10 10:55:00
5:15 AM,53.6,53.6,100,30.35,4.0,NE,3.5,-,N/A,,Overcast,40,2013-01-10 11:15:00
5:35 AM,55.4,53.6,94,30.34,4.0,NNE,3.5,-,N/A,,Overcast,20,2013-01-10 11:35:00
5:55 AM,55.4,53.6,94,30.35,4.0,NNE,3.5,-,N/A,,Overcast,30,2013-01-10 11:55:00
6:15 AM,55.4,53.6,94,30.35,4.0,NNE,3.5,-,N/A,,Overcast,30,2013-01-10 12:15:00
6:35 AM,55.4,53.6,94,30.35,4.0,NNE,3.5,-,N/A,,Overcast,30,2013-01-10 12:35:00
6:55 AM,55.4,53.6,94,30.35,4.0,NNE,3.5,-,N/A,,Overcast,30,2013-01-10 12:55:00
7:15 AM,55.4,53.6,94,30.35,3.0,NNE,3.5,-,N/A,,Overcast,30,2013-01-10 13:15:00
7:35 AM,55.4,53.6,94,30.36,2.5,North,3.5,-,N/A,,Overcast,10,2013-01-10 13:35:00
7:55 AM,55.4,53.6,94,30.36,2.5,ENE,3.5,-,N/A,,Overcast,70,2013-01-10 13:55:00
8:55 AM,57.2,55.4,94,30.38,3.0,Calm,Calm,-,N/A,,Overcast,0,2013-01-10 14:55:00
9:35 AM,57.2,55.4,94,30.37,0.5,Calm,Calm,-,N/A,Fog,Fog,0,2013-01-10 15:35:00
9:55 AM,57.2,55.4,94,30.37,2.5,Calm,Calm,-,N/A,,Mostly Cloudy,0,2013-01-10 15:55:00
10:15 AM,59.0,55.4,88,30.36,2.5,ENE,3.5,-,N/A,,Overcast,60,2013-01-10 16:15:00
10:35 AM,60.8,57.2,88,30.34,2.5,Calm,Calm,-,N/A,,Overcast,0,2013-01-10 16:35:00
10:55 AM,62.6,57.2,82,30.33,2.5,ESE,11.5,20.7,N/A,,Overcast,120,2013-01-10 16:55:00
11:15 AM,62.6,57.2,82,30.32,2.0,SSE,11.5,17.3,N/A,,Overcast,150,2013-01-10 17:15:00
11:55 AM,62.6,57.2,82,30.31,1.8,SE,5.8,-,N/A,,Mostly Cloudy,130,2013-01-10 17:55:00
12:55 PM,62.6,57.2,82,30.28,2.5,East,5.8,-,N/A,,Haze,90,2013-01-10 18:55:00
1:15 PM,62.6,57.2,82,30.27,2.5,ESE,8.1,-,N/A,,Haze,110,2013-01-10 19:15:00
1:35 PM,62.6,57.2,82,30.27,2.5,Calm,Calm,-,N/A,,Haze,0,2013-01-10 19:35:00
1:55 PM,62.6,57.2,82,30.27,2.5,Calm,Calm,-,N/A,,Haze,0,2013-01-10 19:55:00
2:15 PM,64.4,59.0,83,30.27,2.5,Calm,Calm,-,N/A,,Haze,0,2013-01-10 20:15:00
2:35 PM,64.4,59.0,83,30.27,2.5,ESE,6.9,-,N/A,,Haze,110,2013-01-10 20:35:00
2:55 PM,64.4,59.0,83,30.26,2.5,South,5.8,-,N/A,,Haze,170,2013-01-10 20:55:00
3:15 PM,64.4,59.0,83,30.26,2.5,SSE,8.1,19.6,N/A,,Haze,160,2013-01-10 21:15:00
3:35 PM,64.4,59.0,83,30.25,3.0,SSE,5.8,-,N/A,,Haze,160,2013-01-10 21:35:00
3:55 PM,64.4,59.0,83,30.25,3.0,SSE,5.8,-,N/A,,Haze,160,2013-01-10 21:55:00
4:15 PM,64.4,59.0,83,30.25,3.0,SSE,5.8,-,N/A,,Haze,150,2013-01-10 22:15:00
4:35 PM,64.4,57.2,77,30.25,3.0,SSE,5.8,-,N/A,,Haze,150,2013-01-10 22:35:00
4:55 PM,64.4,57.2,77,30.25,5.0,SSE,3.5,-,N/A,,Haze,150,2013-01-10 22:55:00
5:15 PM,64.4,57.2,77,30.24,4.0,SE,6.9,-,N/A,,Haze,130,2013-01-10 23:15:00
5:35 PM,64.4,57.2,77,30.23,5.0,SSE,6.9,17.3,N/A,,Haze,150,2013-01-10 23:35:00
5:55 PM,64.4,57.2,77,30.22,5.0,SSE,9.2,-,N/A,,Haze,150,2013-01-10 23:55:00
6:15 PM,64.4,57.2,77,30.22,5.0,South,6.9,-,N/A,,Haze,170,2013-01-11 00:15:00
6:35 PM,64.4,57.2,77,30.22,5.0,South,6.9,-,N/A,,Haze,190,2013-01-11 00:35:00
6:55 PM,64.4,57.2,77,30.21,5.0,SSE,6.9,-,N/A,,Haze,160,2013-01-11 00:55:00
7:15 PM,64.4,57.2,77,30.20,5.0,SE,6.9,-,N/A,,Haze,140,2013-01-11 01:15:00
7:35 PM,64.4,59.0,83,30.18,5.0,SSE,8.1,18.4,N/A,,Haze,160,2013-01-11 01:35:00
8:15 PM,66.2,59.0,78,30.18,5.0,South,10.4,25.3,N/A,,Haze,170,2013-01-11 02:15:00
8:35 PM,64.4,59.0,83,30.16,5.0,SSE,9.2,25.3,N/A,,Haze,160,2013-01-11 02:35:00
8:55 PM,64.4,59.0,83,30.13,5.0,SE,9.2,20.7,N/A,,Haze,140,2013-01-11 02:55:00
9:15 PM,64.4,59.0,83,30.10,5.0,SE,8.1,23.0,N/A,,Haze,140,2013-01-11 03:15:00
9:35 PM,64.4,59.0,83,30.11,5.0,SSW,10.4,19.6,N/A,,Haze,210,2013-01-11 03:35:00
9:55 PM,66.2,59.0,78,30.11,5.0,SSE,13.8,23.0,N/A,,Haze,150,2013-01-11 03:55:00
10:15 PM,66.2,59.0,78,30.10,5.0,SSE,11.5,19.6,N/A,,Haze,160,2013-01-11 04:15:00
10:35 PM,66.2,59.0,78,30.11,6.0,South,10.4,26.5,N/A,,Haze,180,2013-01-11 04:35:00
10:55 PM,66.2,59.0,78,30.09,5.0,SSE,8.1,18.4,N/A,,Haze,160,2013-01-11 04:55:00
11:15 PM,66.2,59.0,78,30.11,5.0,South,12.7,19.6,N/A,,Haze,190,2013-01-11 05:15:00
11:35 PM,66.2,59.0,78,30.09,5.0,South,13.8,21.9,N/A,,Haze,180,2013-01-11 05:35:00
11:55 PM,66.2,59.0,78,30.09,6.0,South,11.5,23.0,N/A,,Haze,190,2013-01-11 05:55:00